Humidity-temperature Sensor

Selected Measurement Type: Relative Humidity

 
Relative Humidity [%]     6 entries per hour
Showing data from 3/10/2023 (00:00:00 Z) to 3/3/2023 (00:01:00 Z)
Previous Next [ Day | 3-Days | 7-Days ]
First Last
Prev [ Day | 3-Days | 7-Days ] Next
First Last

Start Time:     :
End Time:     :     
Time (in GMT) :00 :50 :40 :30 :20 :10
Previous Next [ Day | 3-Days | 7-Days ]
First Last
Prev [ Day | 3-Days | 7-Days ] Next
First Last


123 => good data
MM => data is determined as missing
-- => data not received/configured
Back to Top Back to Top
3/10/2023 00:00 to 23:10 82.68 82.83 83.38 83.24 83.28 82.81
3/9/2023 23:00 to 22:10 83.11 83.24 83.46 83.69 83.46 83.75
3/9/2023 22:00 to 21:10 83.75 83.85 84.10 84.47 84.31 84.45
3/9/2023 21:00 to 20:10 85.23 84.74 84.49 84.80 84.74 85.21
3/9/2023 20:00 to 19:10 85.31 84.88 84.70 84.96 85.03 84.49
3/9/2023 19:00 to 18:10 84.16 84.02 83.92 84.96 84.88 84.57
3/9/2023 18:00 to 17:10 84.61 84.68 84.39 84.68 84.61 84.37
3/9/2023 17:00 to 16:10 84.16 84.90 84.84 84.51 84.57 85.07
3/9/2023 16:00 to 15:10 85.42 85.39 85.07 84.84 85.23 85.64
3/9/2023 15:00 to 14:10 85.19 85.64 85.89 86.09 86.44 86.77
3/9/2023 14:00 to 13:10 86.55 85.44 84.80 84.02 83.55 84.39
3/9/2023 13:00 to 12:10 84.22 84.10 84.90 84.22 84.12 84.08
3/9/2023 12:00 to 11:10 84.96 84.80 84.76 84.20 83.87 84.88
3/9/2023 11:00 to 10:10 84.47 84.53 84.08 84.33 84.82 84.43
3/9/2023 10:00 to 9:10 85.05 84.47 84.16 84.57 84.37 84.59
3/9/2023 09:00 to 8:10 83.87 83.67 84.18 84.33 84.55 83.94
3/9/2023 08:00 to 7:10 84.00 85.21 85.85 86.50 86.85 86.40
3/9/2023 07:00 to 6:10 85.52 83.94 83.81 84.51 84.68 84.49
3/9/2023 06:00 to 5:10 84.12 84.12 83.22 83.69 84.08 84.35
3/9/2023 05:00 to 4:10 85.39 85.15 84.72 84.24 84.43 84.49
3/9/2023 04:00 to 3:10 83.92 83.09 83.13 83.30 82.85 82.64
3/9/2023 03:00 to 2:10 82.17 81.78 81.43 83.13 82.95 82.44
3/9/2023 02:00 to 1:10 82.87 83.61 84.66 85.29 85.66 85.70
3/9/2023 01:00 to 0:10 85.74 85.95 86.44 85.87 84.96 84.43
3/9/2023 00:00 to 23:10 85.05 85.58 85.87 86.18 86.24 85.35
3/8/2023 23:00 to 22:10 85.68 85.81 85.42 85.79 85.79 85.85
3/8/2023 22:00 to 21:10 86.42 86.38 86.38 85.81 85.15 84.45
3/8/2023 21:00 to 20:10 83.83 82.72 82.60 82.29 82.35 82.56
3/8/2023 20:00 to 19:10 82.52 82.83 82.52 82.66 82.33 81.74
3/8/2023 19:00 to 18:10 82.09 81.45 82.17 82.95 82.91 83.50
3/8/2023 18:00 to 17:10 83.87 84.29 84.70 85.21 84.92 84.86
3/8/2023 17:00 to 16:10 84.90 84.88 84.86 84.88 84.70 85.33
3/8/2023 16:00 to 15:10 86.16 86.77 87.78 87.96 87.90 87.18
3/8/2023 15:00 to 14:10 87.10 87.06 87.02 86.55 86.57 87.26
3/8/2023 14:00 to 13:10 87.82 87.92 87.74 87.37 87.45 86.79
3/8/2023 13:00 to 12:10 86.61 87.51 87.98 88.35 88.42 88.58
3/8/2023 12:00 to 11:10 88.95 89.53 90.10 89.90 89.87 89.85
3/8/2023 11:00 to 10:10 89.50 89.48 89.48 89.44 89.61 89.63
3/8/2023 10:00 to 9:10 89.48 89.30 88.77 88.70 88.58 88.68
3/8/2023 09:00 to 8:10 88.77 88.83 88.77 88.85 88.58 88.46
3/8/2023 08:00 to 7:10 88.42 88.03 88.09 88.19 88.07 88.05
3/8/2023 07:00 to 6:10 87.68 87.49 87.55 87.84 87.57 87.41
3/8/2023 06:00 to 5:10 87.33 87.18 86.90 86.63 86.77 86.44
3/8/2023 05:00 to 4:10 86.67 87.31 87.49 88.03 87.94 88.03
3/8/2023 04:00 to 3:10 88.15 88.23 88.15 87.66 87.49 86.77
3/8/2023 03:00 to 2:10 86.85 86.73 87.06 86.94 86.69 86.55
3/8/2023 02:00 to 1:10 86.26 86.18 86.87 87.55 87.74 88.09
3/8/2023 01:00 to 0:10 88.15 88.23 88.44 89.05 89.44 89.59
3/8/2023 00:00 to 23:10 89.32 88.95 89.11 89.32 89.28 89.38
3/7/2023 23:00 to 22:10 89.48 89.50 89.42 89.50 89.38 89.53
3/7/2023 22:00 to 21:10 89.79 89.98 90.20 90.66 90.37 90.06
3/7/2023 21:00 to 20:10 89.94 90.02 89.61 88.93 89.03 88.72
3/7/2023 20:00 to 19:10 88.74 88.87 89.05 89.38 89.28 89.09
3/7/2023 19:00 to 18:10 88.85 88.37 88.44 88.00 88.05 88.03
3/7/2023 18:00 to 17:10 87.20 86.77 86.34 85.50 85.33 85.42
3/7/2023 17:00 to 16:10 85.37 84.90 84.80 85.13 85.33 84.90
3/7/2023 16:00 to 15:10 84.78 84.88 85.58 85.97 86.34 86.55
3/7/2023 15:00 to 14:10 86.85 86.94 86.53 86.03 86.03 86.30
3/7/2023 14:00 to 13:10 86.34 86.71 86.34 85.70 85.54 85.72
3/7/2023 13:00 to 12:10 86.28 86.98 87.55 87.68 86.92 86.65
3/7/2023 12:00 to 11:10 86.63 86.53 86.38 86.77 86.71 87.33
3/7/2023 11:00 to 10:10 87.29 86.73 86.55 86.28 86.79 87.18
3/7/2023 10:00 to 9:10 87.66 87.68 87.57 87.51 88.05 88.29
3/7/2023 09:00 to 8:10 88.48 88.66 89.09 88.95 89.75 90.33
3/7/2023 08:00 to 7:10 90.78 90.92 90.53 90.37 90.92 90.92
3/7/2023 07:00 to 6:10 90.70 90.27 89.71 89.36 88.87 88.60
3/7/2023 06:00 to 5:10 88.81 88.66 88.54 88.50 88.40 88.13
3/7/2023 05:00 to 4:10 88.68 88.68 88.48 88.56 88.54 88.33
3/7/2023 04:00 to 3:10 88.15 88.25 88.42 88.33 88.27 88.52
3/7/2023 03:00 to 2:10 88.83 88.64 88.44 88.05 88.05 87.86
3/7/2023 02:00 to 1:10 87.88 87.66 88.29 88.25 88.77 88.62
3/7/2023 01:00 to 0:10 88.66 88.13 88.03 87.92 88.09 87.68
3/7/2023 00:00 to 23:10 87.66 87.90 87.51 87.22 86.98 86.26
3/6/2023 23:00 to 22:10 85.74 85.66 85.95 85.85 85.50 86.20
3/6/2023 22:00 to 21:10 86.79 86.98 86.98 87.80 87.80 87.31
3/6/2023 21:00 to 20:10 87.24 87.63 87.51 87.45 86.87 86.94
3/6/2023 20:00 to 19:10 86.38 87.00 86.92 86.75 87.12 86.79
3/6/2023 19:00 to 18:10 86.36 86.55 86.48 86.77 87.31 87.78
3/6/2023 18:00 to 17:10 87.22 86.40 86.22 86.44 86.81 86.87
3/6/2023 17:00 to 16:10 86.44 86.53 86.69 86.48 86.77 86.38
3/6/2023 16:00 to 15:10 86.65 87.29 87.12 87.22 87.47 87.53
3/6/2023 15:00 to 14:10 87.57 88.11 87.74 88.23 88.64 88.54
3/6/2023 14:00 to 13:10 88.40 88.09 88.37 89.07 88.77 88.66
3/6/2023 13:00 to 12:10 88.35 88.37 88.68 88.68 88.66 88.83
3/6/2023 12:00 to 11:10 88.74 88.62 88.95 88.89 88.93 88.81
3/6/2023 11:00 to 10:10 88.56 88.58 88.68 87.45 87.53 88.17
3/6/2023 10:00 to 9:10 87.94 87.63 87.47 87.59 87.82 87.63
3/6/2023 09:00 to 8:10 87.88 88.03 88.11 88.05 88.15 88.07
3/6/2023 08:00 to 7:10 88.46 88.66 88.89 88.62 89.01 88.85
3/6/2023 07:00 to 6:10 88.54 87.82 87.59 87.43 87.26 87.22
3/6/2023 06:00 to 5:10 87.20 86.96 86.71 87.08 87.33 87.08
3/6/2023 05:00 to 4:10 86.63 86.11 86.03 85.52 85.62 86.20
3/6/2023 04:00 to 3:10 85.83 85.97 85.87 85.95 86.55 86.96
3/6/2023 03:00 to 2:10 87.04 87.39 87.70 87.55 87.43 87.18
3/6/2023 02:00 to 1:10 87.16 87.35 88.13 87.88 87.76 87.66
3/6/2023 01:00 to 0:10 87.72 88.00 88.40 88.52 88.05 88.35
3/6/2023 00:00 to 23:10 88.50 88.62 88.79 88.66 88.33 88.19
3/5/2023 23:00 to 22:10 87.80 87.53 87.63 87.59 87.92 88.11
3/5/2023 22:00 to 21:10 87.74 87.49 86.87 86.83 87.31 87.55
3/5/2023 21:00 to 20:10 87.76 87.24 86.98 86.92 86.87 86.55
3/5/2023 20:00 to 19:10 85.68 85.29 84.82 85.27 85.23 85.13
3/5/2023 19:00 to 18:10 85.33 85.72 85.60 85.44 85.91 85.79
3/5/2023 18:00 to 17:10 86.40 86.44 86.01 86.48 87.00 87.41
3/5/2023 17:00 to 16:10 88.29 88.58 87.98 87.68 87.14 87.10
3/5/2023 16:00 to 15:10 86.96 86.67 86.30 86.71 86.94 87.72
3/5/2023 15:00 to 14:10 87.43 87.24 87.04 86.32 86.24 86.69
3/5/2023 14:00 to 13:10 86.81 86.96 86.98 86.34 87.10 86.92
3/5/2023 13:00 to 12:10 86.85 87.49 87.47 87.06 87.12 86.73
3/5/2023 12:00 to 11:10 85.95 85.85 86.16 86.36 86.75 87.39
3/5/2023 11:00 to 10:10 87.53 87.53 87.68 87.51 87.26 87.35
3/5/2023 10:00 to 9:10 87.92 87.92 88.13 87.80 87.51 87.68
3/5/2023 09:00 to 8:10 87.57 87.45 87.26 87.18 87.57 87.66
3/5/2023 08:00 to 7:10 87.92 88.05 88.13 88.11 88.03 87.86
3/5/2023 07:00 to 6:10 87.57 87.57 87.59 88.09 88.48 88.54
3/5/2023 06:00 to 5:10 88.13 87.63 87.45 87.66 87.02 86.83
3/5/2023 05:00 to 4:10 86.40 86.32 86.55 86.73 87.04 87.31
3/5/2023 04:00 to 3:10 86.98 86.50 86.46 86.75 87.14 86.96
3/5/2023 03:00 to 2:10 86.98 87.31 87.49 87.43 87.12 87.06
3/5/2023 02:00 to 1:10 86.92 87.26 86.98 87.04 86.96 86.75
3/5/2023 01:00 to 0:10 86.55 87.06 86.90 86.79 86.96 87.00
3/5/2023 00:00 to 23:10 87.29 87.26 87.16 87.20 86.83 87.29
3/4/2023 23:00 to 22:10 86.94 86.65 86.36 86.81 87.04 87.14
3/4/2023 22:00 to 21:10 86.94 86.96 87.31 87.43 87.08 87.22
3/4/2023 21:00 to 20:10 87.43 87.82 87.63 87.35 87.35 87.37
3/4/2023 20:00 to 19:10 87.29 87.20 87.24 87.26 87.43 87.68
3/4/2023 19:00 to 18:10 87.39 87.24 86.79 86.90 86.94 86.81
3/4/2023 18:00 to 17:10 87.20 86.94 86.26 85.81 85.50 85.72
3/4/2023 17:00 to 16:10 85.44 85.48 84.53 84.04 83.92 83.85
3/4/2023 16:00 to 15:10 84.96 86.11 86.59 86.11 86.36 86.79
3/4/2023 15:00 to 14:10 87.26 87.51 87.80 87.68 87.74 87.68
3/4/2023 14:00 to 13:10 87.53 87.24 87.08 87.35 87.90 88.07
3/4/2023 13:00 to 12:10 88.19 88.05 87.66 87.57 87.43 87.26
3/4/2023 12:00 to 11:10 87.16 86.96 86.69 86.40 86.67 86.63
3/4/2023 11:00 to 10:10 86.94 87.26 87.00 87.24 87.74 87.92
3/4/2023 10:00 to 9:10 87.92 88.25 88.52 88.56 88.64 88.52
3/4/2023 09:00 to 8:10 88.52 88.27 88.15 87.31 87.14 86.75
3/4/2023 08:00 to 7:10 86.73 86.67 86.83 87.08 87.33 87.61
3/4/2023 07:00 to 6:10 87.78 87.37 87.10 87.04 86.98 86.96
3/4/2023 06:00 to 5:10 86.96 86.85 86.71 86.55 86.26 86.20
3/4/2023 05:00 to 4:10 86.03 86.01 85.87 85.99 86.01 85.58
3/4/2023 04:00 to 3:10 85.44 85.37 84.47 83.98 83.77 83.40
3/4/2023 03:00 to 2:10 83.50 83.40 83.32 83.34 83.24 82.97
3/4/2023 02:00 to 1:10 82.99 82.83 82.33 81.84 81.35 80.96
3/4/2023 01:00 to 0:10 80.87 80.79 80.96 80.83 80.81 80.48
3/4/2023 00:00 to 23:10 80.52 80.75 80.83 80.22 79.74 79.74
3/3/2023 23:00 to 22:10 79.83 80.40 80.69 80.98 81.02 80.98
3/3/2023 22:00 to 21:10 80.87 80.98 81.04 80.71 80.77 81.31
3/3/2023 21:00 to 20:10 82.02 82.50 82.48 82.62 82.60 82.68
3/3/2023 20:00 to 19:10 82.74 82.81 82.68 82.66 82.13 81.43
3/3/2023 19:00 to 18:10 81.20 81.08 80.40 80.52 80.50 80.34
3/3/2023 18:00 to 17:10 80.73 80.75 81.10 80.71 80.71 80.73
3/3/2023 17:00 to 16:10 80.61 80.94 81.18 80.63 80.48 80.71
3/3/2023 16:00 to 15:10 81.29 81.72 82.11 82.33 82.72 82.15
3/3/2023 15:00 to 14:10 81.92 81.98 81.90 81.98 82.00 82.00
3/3/2023 14:00 to 13:10 81.88 82.15 82.79 83.81 83.98 84.55
3/3/2023 13:00 to 12:10 84.94 84.41 84.45 84.74 84.96 85.19
3/3/2023 12:00 to 11:10 85.56 85.74 85.64 85.19 85.52 85.76
3/3/2023 11:00 to 10:10 85.89 85.89 86.01 85.89 85.79 85.70
3/3/2023 10:00 to 9:10 85.58 85.79 85.85 85.83 85.87 85.97
3/3/2023 09:00 to 8:10 85.74 85.29 85.70 86.01 86.48 87.16
3/3/2023 08:00 to 7:10 87.22 87.33 86.87 86.34 85.87 85.19
3/3/2023 07:00 to 6:10 84.74 84.88 84.53 84.43 84.61 84.86
3/3/2023 06:00 to 5:10 84.92 84.92 85.07 85.62 86.13 86.20
3/3/2023 05:00 to 4:10 85.33 84.88 84.51 84.29 84.78 85.70
3/3/2023 04:00 to 3:10 86.36 86.16 86.05 85.85 86.18 86.05
3/3/2023 03:00 to 2:10 86.16 85.97 85.56 84.82 84.20 84.29
3/3/2023 02:00 to 1:10 84.63 84.98 84.92 84.82 85.19 84.92
3/3/2023 01:00 to 0:10 84.80 84.92 85.25 85.23 85.37 85.60